RH
91 69 56 48 37 26 32 44 36 41 74 72 46 40 65 67 64 62 61 57 36 22 21 20 21 21 20 19 18 16 14 12 11
72 66 61 52 45 36 21 20 32 27 26 27 36 35 47 53 58 61 53 49 40 23 22 23 24 23 22 22 22 21 20 19 17
92 66 66 64 56 48 34 26 19 19 19 19 22 27 38 52 54 65 63 56 46 26 22 23 25 25 24 24 25 24 24 24 24
63 55 63 71 55 45 38 35 27 20 16 18 21 24 37 50 57 66 62 54 52 33 24 24 25 26 26 26 26 27 26 27 27
33 37 42 37 31 40 48 43 34 30 23 17 21 26 28 39 51 54 54 53 47 51 29 25 25 25 26 27 27 28 28 29 30
23 25 37 38 30 33 44 45 39 36 31 22 19 24 27 31 42 49 49 48 41 39 52 30 26 26 26 26 26 27 28 29 30
26 26 32 32 32 37 41 46 45 36 27 19 19 20 25 26 28 42 45 42 38 42 66 49 29 26 26 26 26 26 27 28 28
27 28 33 33 36 35 38 37 35 27 26 21 16 20 23 26 25 25 30 35 36 37 60 91 49 28 27 27 26 26 26 26 27
32 32 34 38 42 43 44 45 48 41 37 26 18 16 20 23 23 23 24 30 36 37 41 90 92 57 31 28 27 27 26 26 27
44 44 46 49 52 54 55 55 54 53 48 40 34 25 18 20 24 25 26 25 29 35 39 84 91 93 93 77 44 29 28 27 27
48 50 52 52 55 58 60 62 62 60 61 55 52 46 41 33 29 28 30 32 35 29 34 41 83 88 91 93 91 86 69 42 31
43 46 50 52 57 62 64 66 68 67 66 63 63 64 60 56 49 43 38 36 39 39 40 43 43 46 66 83 89 91 89 87 84
49 53 54 59 63 66 67 68 71 73 72 70 70 70 70 68 66 64 60 56 51 48 48 50 46 42 42 66 71 78 84 86 85
64 68 71 76 81 84 84 84 82 81 80 79 79 79 79 78 77 74 72 70 69 67 61 58 57 60 58 53 62 63 65 69 78
72 79 83 86 88 89 90 92 93 93 92 91 90 89 89 86 84 83 82 79 77 76 75 73 70 68 68 68 65 61 54 54 58
83 88 91 91 92 91 94 94 94 94 94 94 87 85 84 79 78 80 78 76 70 73 70 73 79 80 79 76 74 70 68 66 66
90 90 90 90 90 89 90 94 96 97 95 98 100 99 89 82 74 75 78 77 77 74 64 65 58 57 56 55 59 64 70 74 76
78 79 79 80 82 81 81 82 90 96 87 89 100 99 92 86 80 76 73 75 78 79 81 79 72 75 71 68 64 61 63 63 64
71 73 74 75 76 78 80 83 90 97 94 90 100 100 99 99 94 86 81 73 76 72 71 69 69 69 72 77 83 78 62 63 67
48 48 49 50 52 56 60 66 68 94 99 99 99 100 99 100 100 98 96 98 82 76 81 78 79 78 72 66 66 66 72 65 58
Wind_Speed
8 6 5 5 6 4 6 9 7 7 15 12 10 13 14 12 10 7 8 6 5 6 6 6 6 5 5 4 3 3 2 1 2
8 7 7 6 6 6 7 8 10 10 11 11 12 15 17 16 15 12 10 8 8 8 8 7 6 6 5 4 4 3 2 2 2
12 10 8 7 6 7 8 9 10 12 11 10 12 15 18 17 16 15 13 11 10 11 10 9 8 7 7 6 6 5 4 4 4
13 11 10 8 7 8 9 10 11 12 13 13 13 15 18 18 18 17 16 14 12 13 13 12 11 10 9 9 8 7 7 6 6
12 12 10 10 10 10 11 12 13 14 14 14 14 16 19 22 20 19 18 17 16 16 16 14 14 14 13 11 10 10 9 9 8
10 10 10 10 9 10 12 14 15 16 16 15 16 18 20 23 23 23 21 20 20 19 19 18 18 17 16 15 14 13 13 12 11
11 10 10 10 10 11 13 15 16 17 16 17 19 21 21 24 26 26 24 24 23 22 22 23 22 21 20 19 18 18 17 16 16
10 10 10 11 11 12 13 14 15 16 17 18 20 22 23 25 26 28 29 28 27 27 26 26 26 25 24 24 23 22 21 21 20
11 12 12 14 14 15 15 16 17 18 18 20 21 23 24 26 28 30 30 32 32 31 30 29 30 30 29 29 28 27 26 26 25
15 16 17 18 18 19 19 20 21 21 21 21 23 24 25 28 29 31 31 33 36 36 35 32 32 33 33 32 33 33 32 31 30
19 20 22 22 22 22 24 25 26 27 26 26 26 27 27 29 30 33 34 35 37 39 39 38 35 35 35 36 37 37 36 36 35
21 23 25 26 26 27 28 30 31 32 32 33 32 31 32 33 33 34 36 37 37 40 42 43 43 42 41 39 39 40 40 40 39
25 27 28 29 29 30 32 33 35 37 37 38 38 37 37 38 38 38 39 40 39 40 41 44 45 46 46 43 43 43 43 44 44
26 29 30 31 31 32 34 36 37 39 41 41 41 42 42 42 42 43 43 44 44 44 44 45 45 46 48 48 46 46 47 47 47
27 30 31 32 34 35 36 36 37 38 40 42 44 44 45 45 45 46 47 48 48 47 47 48 48 47 48 48 49 50 50 49 50
30 32 33 32 33 34 37 39 39 40 39 41 41 41 42 44 45 43 43 43 42 41 41 42 45 48 48 47 47 47 48 48 49
28 28 29 30 32 32 33 35 38 41 39 41 38 29 32 35 38 38 37 38 35 34 32 35 34 32 35 37 38 40 42 44 47
20 22 23 24 25 28 29 30 32 35 34 37 38 21 20 30 37 39 42 42 41 41 40 38 39 38 37 37 37 37 37 37 39
16 17 19 20 22 23 24 23 25 28 34 33 36 39 43 31 33 33 35 44 44 47 48 47 44 43 42 42 40 37 39 39 38
14 15 17 19 20 21 22 24 25 24 29 33 35 37 43 43 42 38 34 36 44 45 46 46 46 48 47 45 45 39 35 34 39
Wind_Direction
269 276 283 266 262 268 225 230 237 226 227 227 214 212 220 227 236 227 218 221 253 251 251 250 251 252 257 265 272 285 296 282 256
278 279 275 272 267 268 271 260 255 262 256 257 216 215 222 232 240 237 230 224 252 254 255 253 252 250 253 258 261 266 276 278 264
273 292 280 266 263 276 274 273 272 268 268 262 235 221 224 230 237 238 240 243 252 255 258 257 254 251 247 245 245 248 251 255 253
265 279 279 280 277 284 278 279 276 273 267 258 247 232 229 234 236 240 243 242 247 256 255 258 259 256 252 246 243 245 245 245 246
274 277 282 282 284 288 286 285 279 274 267 260 251 241 236 241 240 243 247 247 249 254 257 259 260 259 257 255 252 249 247 245 244
279 280 272 279 285 285 288 289 285 279 273 266 257 248 243 243 246 247 250 252 253 252 253 260 261 261 261 260 258 257 255 252 252
278 275 272 281 290 289 291 291 291 283 280 274 263 254 249 247 248 251 253 255 255 254 251 258 258 259 261 262 261 262 261 260 258
279 278 278 285 292 298 297 297 301 293 284 278 269 262 255 252 252 253 254 255 256 254 254 255 260 259 260 261 262 262 262 262 263
277 280 285 287 293 296 297 298 298 295 292 284 276 269 263 259 257 256 255 254 255 256 258 254 257 260 259 259 260 261 262 263 263
277 281 284 287 291 295 299 299 298 295 294 289 283 278 272 268 264 262 260 259 257 258 260 256 256 259 260 259 259 260 261 262 263
288 290 291 292 295 297 298 297 295 292 290 289 286 284 281 276 271 269 267 262 262 260 260 262 257 255 258 260 263 265 264 263 262
293 293 292 294 297 297 296 295 294 292 292 290 289 288 286 282 279 275 273 271 266 264 264 264 264 261 258 256 258 260 263 265 267
295 296 299 301 300 298 296 296 294 292 291 291 291 289 287 286 283 281 277 275 274 271 268 266 266 265 265 260 259 258 259 261 263
300 302 303 303 301 299 297 295 293 293 293 293 292 291 289 287 285 281 279 278 277 276 275 272 269 267 267 267 263 260 259 258 261
301 301 303 302 298 296 296 295 295 294 293 292 292 291 291 291 286 284 282 281 279 277 276 276 273 271 269 267 267 267 265 264 261
292 293 294 297 296 297 297 297 296 295 296 291 293 293 290 291 291 292 290 288 286 286 283 279 275 273 273 271 269 267 266 265 265
287 290 292 294 294 294 294 297 298 297 296 290 290 288 292 292 296 296 293 293 291 283 283 289 286 283 281 279 276 272 269 269 269
296 296 297 299 302 301 302 301 300 298 297 294 284 278 279 289 292 290 291 289 285 282 283 281 283 284 282 283 281 277 275 275 274
307 308 308 309 309 309 310 306 303 302 302 303 296 293 290 278 285 283 280 288 283 283 283 282 280 282 283 284 285 284 277 269 267
332 330 329 326 325 323 318 310 306 303 303 300 300 292 287 285 272 281 283 278 285 287 283 282 284 282 280 281 285 286 285 281 272